ENT7159 EPKT-LTAI

Flight info

Callsign ENT7159
Flight time 2h 20m
Altitude 37000
Route REGTO DCT RAZEC DCT KEKED DCT APROB DCT ADORU UL606 CRD UL854 KOZLU
Aircraft B738/M-SDFGHIJ1RWXY/LB1

Departure

Time 2026-05-04 16:55
Airport Katowice Wojciech Korfanty International Airport (EPKT)

Arrival

Time 2026-05-04 19:15
Airport Antalya International Airport (LTAI)
Time Latitude Longitude Altitude Speed Heading
2026-05-04 16:40 50.47150 19.08471 997 ft 0 kts 180°
2026-05-04 16:47 50.47156 19.08471 997 ft 2 kts 179°
2026-05-04 16:48 50.47206 19.08470 1000 ft 2 kts 175°
2026-05-04 16:48 50.47222 19.08466 997 ft 2 kts 158°
2026-05-04 16:49 50.47232 19.08444 999 ft 0 kts 90°
2026-05-04 16:50 50.47232 19.08530 1001 ft 12 kts 90°
2026-05-04 16:50 50.47232 19.08884 1000 ft 19 kts 90°
2026-05-04 16:51 50.47231 19.09214 1001 ft 14 kts 91°
2026-05-04 16:51 50.47230 19.09360 1003 ft 13 kts 90°
2026-05-04 16:51 50.47230 19.09637 999 ft 12 kts 90°
2026-05-04 16:52 50.47228 19.09925 1002 ft 16 kts 90°
2026-05-04 16:52 50.47278 19.10108 997 ft 21 kts 52°
2026-05-04 16:53 50.47472 19.10443 1000 ft 20 kts 11°
2026-05-04 16:53 50.47595 19.09970 1000 ft 73 kts 270°
2026-05-04 16:54 50.47599 19.08765 1000 ft 145 kts 270°
2026-05-04 16:55 50.47618 19.00886 4223 ft 179 kts 267°
2026-05-04 16:55 50.47374 18.96530 4841 ft 227 kts 240°
2026-05-04 16:56 50.44651 18.93937 5627 ft 256 kts 179°
2026-05-04 16:56 50.40177 18.98762 7968 ft 279 kts 134°
2026-05-04 16:57 50.38893 19.01078 8775 ft 283 kts 133°
2026-05-04 16:57 50.36274 19.05810 10292 ft 294 kts 133°
2026-05-04 16:58 50.31825 19.13898 11325 ft 349 kts 132°
2026-05-04 16:58 50.30224 19.16792 12024 ft 354 kts 132°
2026-05-04 16:59 50.26928 19.22606 13504 ft 361 kts 133°
2026-05-04 17:00 50.20020 19.34468 16155 ft 376 kts 133°
2026-05-04 17:00 50.14657 19.43577 17993 ft 388 kts 132°
2026-05-04 17:01 50.10956 19.49848 19137 ft 395 kts 132°
2026-05-04 17:01 50.07737 19.55290 20106 ft 399 kts 132°
2026-05-04 17:02 50.03935 19.61701 21155 ft 406 kts 132°
2026-05-04 17:02 50.00068 19.68202 22202 ft 412 kts 132°
2026-05-04 17:03 49.98115 19.71478 22696 ft 415 kts 132°
2026-05-04 17:03 49.96145 19.74782 23186 ft 419 kts 132°
2026-05-04 17:03 49.92828 19.80330 23897 ft 424 kts 132°
2026-05-04 17:04 49.88760 19.87122 24726 ft 429 kts 132°
2026-05-04 17:04 49.84674 19.93925 24973 ft 432 kts 132°
2026-05-04 17:05 49.80583 20.00715 25003 ft 431 kts 132°
2026-05-04 17:05 49.76486 20.07499 25006 ft 432 kts 132°
2026-05-04 17:06 49.72351 20.14253 25054 ft 435 kts 136°
2026-05-04 17:06 49.69951 20.17138 25416 ft 438 kts 146°
2026-05-04 17:07 49.64793 20.22120 26383 ft 438 kts 147°
2026-05-04 17:07 49.63070 20.23761 26612 ft 440 kts 147°
2026-05-04 17:07 49.59566 20.27114 27043 ft 445 kts 147°
2026-05-04 17:07 49.56933 20.29650 27383 ft 448 kts 147°
2026-05-04 17:08 49.54290 20.32209 27724 ft 450 kts 147°
2026-05-04 17:08 49.48962 20.37381 28413 ft 455 kts 147°
2026-05-04 17:08 49.46284 20.39981 28749 ft 457 kts 146°
2026-05-04 17:09 49.43590 20.42593 29079 ft 459 kts 146°
2026-05-04 17:09 49.40888 20.45209 29381 ft 461 kts 147°
2026-05-04 17:09 49.38161 20.47846 29662 ft 464 kts 147°
2026-05-04 17:10 49.32637 20.53176 30226 ft 468 kts 147°
2026-05-04 17:10 49.24337 20.61155 31083 ft 469 kts 147°
2026-05-04 17:11 49.21570 20.63807 31410 ft 469 kts 147°
2026-05-04 17:11 49.18809 20.66451 31722 ft 469 kts 147°
2026-05-04 17:11 49.13283 20.71731 32392 ft 467 kts 147°
2026-05-04 17:12 49.10500 20.74386 32752 ft 466 kts 147°
2026-05-04 17:12 49.05006 20.79615 33320 ft 466 kts 147°
2026-05-04 17:13 48.96760 20.87438 34185 ft 464 kts 146°
2026-05-04 17:14 48.88527 20.95218 34839 ft 464 kts 147°
2026-05-04 17:14 48.85784 20.97803 35052 ft 464 kts 147°
2026-05-04 17:14 48.80261 21.02999 35514 ft 463 kts 147°
2026-05-04 17:15 48.77485 21.05590 35727 ft 463 kts 147°
2026-05-04 17:15 48.71999 21.10586 36153 ft 463 kts 147°
2026-05-04 17:16 48.66427 21.15616 36531 ft 463 kts 147°
2026-05-04 17:16 48.58139 21.23103 37021 ft 464 kts 147°
2026-05-04 17:17 48.55363 21.25610 37017 ft 466 kts 147°
2026-05-04 17:18 48.44274 21.35593 37038 ft 459 kts 147°
2026-05-04 17:19 48.33366 21.45365 37056 ft 455 kts 147°
2026-05-04 17:20 48.22435 21.55109 37060 ft 456 kts 147°
2026-05-04 17:20 48.14245 21.62377 37060 ft 460 kts 147°
2026-05-04 17:21 48.03162 21.72168 37046 ft 465 kts 147°
2026-05-04 17:22 47.97541 21.77115 37050 ft 466 kts 147°
2026-05-04 17:23 47.86334 21.86940 37045 ft 467 kts 147°
2026-05-04 17:24 47.77879 21.94319 37059 ft 466 kts 147°
2026-05-04 17:25 47.66714 22.04021 37067 ft 463 kts 147°
2026-05-04 17:26 47.55601 22.13631 37066 ft 461 kts 147°
2026-05-04 17:27 47.41761 22.25532 37069 ft 460 kts 147°
2026-05-04 17:28 47.31577 22.34243 37072 ft 461 kts 148°
2026-05-04 17:29 47.14843 22.48471 37076 ft 463 kts 148°
2026-05-04 17:31 47.00833 22.60302 37087 ft 463 kts 148°
2026-05-04 17:32 46.86857 22.72034 37092 ft 463 kts 148°
2026-05-04 17:33 46.75673 22.81370 37019 ft 462 kts 149°
2026-05-04 17:34 46.64542 22.90618 37101 ft 460 kts 149°
2026-05-04 17:35 46.50642 23.02104 37104 ft 460 kts 149°
2026-05-04 17:36 46.45076 23.06684 37094 ft 460 kts 149°
2026-05-04 17:36 46.39506 23.11257 37095 ft 460 kts 149°
2026-05-04 17:37 46.33904 23.15845 37091 ft 460 kts 149°
2026-05-04 17:37 46.28322 23.20406 37084 ft 461 kts 149°
2026-05-04 17:38 46.22747 23.24951 37084 ft 461 kts 149°
2026-05-04 17:38 46.17144 23.29507 37077 ft 462 kts 149°
2026-05-04 17:39 46.08742 23.36320 37074 ft 462 kts 150°
2026-05-04 17:39 46.03135 23.40853 37065 ft 463 kts 150°
2026-05-04 17:40 45.97514 23.45387 37068 ft 462 kts 150°
2026-05-04 17:40 45.91907 23.49899 37075 ft 462 kts 150°
2026-05-04 17:41 45.86271 23.54423 37079 ft 462 kts 150°
2026-05-04 17:41 45.80667 23.58911 37082 ft 462 kts 150°
2026-05-04 17:42 45.75050 23.63400 37077 ft 462 kts 150°
2026-05-04 17:42 45.69437 23.67874 37084 ft 461 kts 150°
2026-05-04 17:43 45.63830 23.72334 37087 ft 461 kts 150°
2026-05-04 17:43 45.58222 23.76784 37083 ft 461 kts 150°
2026-05-04 17:44 45.52611 23.81226 37094 ft 461 kts 150°
2026-05-04 17:44 45.47012 23.85648 37097 ft 460 kts 150°
2026-05-04 17:45 45.41411 23.90063 37091 ft 461 kts 150°
2026-05-04 17:45 45.35754 23.94511 37084 ft 462 kts 150°
2026-05-04 17:46 45.30110 23.98938 37083 ft 465 kts 150°
2026-05-04 17:46 45.24425 24.03389 37078 ft 467 kts 150°
2026-05-04 17:47 45.18726 24.07838 37056 ft 467 kts 150°
2026-05-04 17:47 45.13034 24.12272 37059 ft 466 kts 151°
2026-05-04 17:48 45.07355 24.16686 37049 ft 465 kts 151°
2026-05-04 17:48 45.01699 24.21072 37041 ft 462 kts 151°
2026-05-04 17:49 44.96069 24.25428 37035 ft 460 kts 151°
2026-05-04 17:49 44.90477 24.29745 37038 ft 457 kts 151°
2026-05-04 17:50 44.84907 24.34036 37034 ft 456 kts 151°
2026-05-04 17:50 44.79344 24.38312 37042 ft 454 kts 151°
2026-05-04 17:51 44.73772 24.42585 37036 ft 454 kts 151°
2026-05-04 17:51 44.68247 24.46813 37035 ft 455 kts 151°
2026-05-04 17:52 44.62644 24.51091 37034 ft 456 kts 151°
2026-05-04 17:52 44.57070 24.55337 37036 ft 457 kts 151°
2026-05-04 17:53 44.51473 24.59592 37034 ft 458 kts 151°
2026-05-04 17:53 44.45861 24.63849 37030 ft 459 kts 151°
2026-05-04 17:54 44.40198 24.68134 37033 ft 460 kts 151°
2026-05-04 17:54 44.34556 24.72395 37037 ft 461 kts 151°
2026-05-04 17:55 44.28902 24.76655 37036 ft 462 kts 152°
2026-05-04 17:55 44.23287 24.80877 37034 ft 462 kts 152°
2026-05-04 17:56 44.17630 24.85121 37029 ft 462 kts 152°
2026-05-04 17:56 44.11975 24.89354 37037 ft 461 kts 152°
2026-05-04 17:57 44.06315 24.93582 37036 ft 460 kts 152°
2026-05-04 17:57 44.00647 24.97808 37035 ft 460 kts 152°
2026-05-04 17:58 43.95024 25.02015 37036 ft 459 kts 151°
2026-05-04 17:58 43.90354 25.05617 37039 ft 458 kts 150°
2026-05-04 17:59 43.84802 25.09931 37047 ft 457 kts 150°
2026-05-04 18:00 43.76478 25.16360 37049 ft 456 kts 150°
2026-05-04 18:00 43.70932 25.20621 37047 ft 456 kts 151°
2026-05-04 18:01 43.65377 25.24876 37049 ft 456 kts 151°
2026-05-04 18:01 43.59892 25.29069 37051 ft 457 kts 151°
2026-05-04 18:02 43.51473 25.35488 37049 ft 458 kts 151°
2026-05-04 18:02 43.45879 25.39743 37053 ft 459 kts 150°
2026-05-04 18:03 43.40278 25.43993 37058 ft 460 kts 150°
2026-05-04 18:03 43.34671 25.48239 37054 ft 461 kts 150°
2026-05-04 18:04 43.29039 25.52495 37048 ft 462 kts 150°
2026-05-04 18:05 43.20592 25.58862 37047 ft 462 kts 150°
2026-05-04 18:05 43.14911 25.63132 37057 ft 462 kts 150°
2026-05-04 18:06 43.06431 25.69488 37046 ft 462 kts 150°
2026-05-04 18:06 43.00801 25.73698 37051 ft 462 kts 150°
2026-05-04 18:07 42.95153 25.77912 37060 ft 465 kts 150°
2026-05-04 18:07 42.89432 25.82172 37063 ft 472 kts 150°
2026-05-04 18:08 42.83654 25.86464 37057 ft 474 kts 150°
2026-05-04 18:08 42.77858 25.90761 37051 ft 475 kts 150°
2026-05-04 18:09 42.66254 25.99334 37052 ft 473 kts 151°
2026-05-04 18:10 42.60461 26.03602 37041 ft 473 kts 150°
2026-05-04 18:10 42.54650 26.07873 37032 ft 473 kts 150°
2026-05-04 18:11 42.48861 26.12119 37037 ft 472 kts 150°
2026-05-04 18:11 42.43079 26.16350 37033 ft 472 kts 150°
2026-05-04 18:12 42.37301 26.20571 37028 ft 472 kts 150°
2026-05-04 18:12 42.31516 26.24787 37034 ft 472 kts 150°
2026-05-04 18:13 42.25699 26.29017 37035 ft 472 kts 150°
2026-05-04 18:14 42.16989 26.35335 37039 ft 472 kts 150°
2026-05-04 18:14 42.11189 26.39532 37039 ft 473 kts 150°
2026-05-04 18:15 41.99630 26.47869 37042 ft 473 kts 150°
2026-05-04 18:16 41.93788 26.52071 37042 ft 473 kts 150°
2026-05-04 18:16 41.87976 26.56244 37045 ft 474 kts 150°
2026-05-04 18:17 41.79633 26.63304 37042 ft 473 kts 146°
2026-05-04 18:18 41.71334 26.70451 37049 ft 473 kts 146°
2026-05-04 18:18 41.65799 26.75206 37046 ft 473 kts 146°
2026-05-04 18:19 41.57478 26.82338 37048 ft 474 kts 146°
2026-05-04 18:19 41.51928 26.87084 37052 ft 474 kts 146°
2026-05-04 18:20 41.46496 26.91719 37050 ft 474 kts 146°
2026-05-04 18:20 41.40904 26.96480 37054 ft 474 kts 146°
2026-05-04 18:21 41.35344 27.01204 37052 ft 474 kts 146°
2026-05-04 18:21 41.29775 27.05926 37056 ft 475 kts 146°
2026-05-04 18:22 41.24197 27.10647 37055 ft 475 kts 146°
2026-05-04 18:22 41.18620 27.15356 37060 ft 475 kts 146°
2026-05-04 18:23 41.13035 27.20063 37060 ft 476 kts 146°
2026-05-04 18:23 41.07446 27.24764 37061 ft 476 kts 146°
2026-05-04 18:24 41.01852 27.29459 37064 ft 476 kts 146°
2026-05-04 18:24 40.96250 27.34151 37064 ft 477 kts 146°
2026-05-04 18:25 40.90645 27.38837 37067 ft 477 kts 146°
2026-05-04 18:25 40.85031 27.43520 37068 ft 477 kts 146°
2026-05-04 18:26 40.79410 27.48199 37064 ft 478 kts 146°
2026-05-04 18:26 40.73751 27.52901 37067 ft 478 kts 146°
2026-05-04 18:27 40.68156 27.57541 37065 ft 478 kts 146°
2026-05-04 18:27 40.62477 27.62240 37070 ft 479 kts 146°
2026-05-04 18:28 40.56828 27.66904 37059 ft 480 kts 146°
2026-05-04 18:28 40.51169 27.71568 37064 ft 480 kts 146°
2026-05-04 18:29 40.46458 27.75443 37068 ft 481 kts 146°
2026-05-04 18:29 40.40780 27.80106 37059 ft 482 kts 146°
2026-05-04 18:30 40.32247 27.87094 37065 ft 482 kts 146°
2026-05-04 18:31 40.26552 27.91747 37067 ft 483 kts 146°
2026-05-04 18:31 40.20847 27.96398 37054 ft 483 kts 146°
2026-05-04 18:32 40.15141 28.01041 37059 ft 483 kts 146°
2026-05-04 18:32 40.09388 28.05713 37062 ft 484 kts 146°
2026-05-04 18:33 40.03663 28.10352 37066 ft 484 kts 146°
2026-05-04 18:33 39.97934 28.14986 37063 ft 485 kts 146°
2026-05-04 18:34 39.92227 28.19592 37066 ft 486 kts 146°
2026-05-04 18:34 39.86473 28.24227 37065 ft 487 kts 146°
2026-05-04 18:35 39.80705 28.28865 37064 ft 487 kts 146°
2026-05-04 18:35 39.74896 28.33526 37067 ft 488 kts 146°
2026-05-04 18:36 39.69113 28.38156 37067 ft 488 kts 146°
2026-05-04 18:36 39.63324 28.42782 37062 ft 489 kts 147°
2026-05-04 18:37 39.57534 28.47400 37067 ft 489 kts 147°
2026-05-04 18:37 39.51740 28.52012 37074 ft 489 kts 147°
2026-05-04 18:38 39.45939 28.56620 37068 ft 489 kts 147°
2026-05-04 18:38 39.40133 28.61224 37070 ft 490 kts 147°
2026-05-04 18:39 39.34319 28.65824 37063 ft 490 kts 147°
2026-05-04 18:39 39.28501 28.70419 37069 ft 490 kts 147°
2026-05-04 18:40 39.22676 28.75010 37059 ft 491 kts 147°
2026-05-04 18:40 39.16851 28.79591 37065 ft 490 kts 147°
2026-05-04 18:41 39.11028 28.84163 37067 ft 490 kts 147°
2026-05-04 18:41 39.05201 28.88728 37049 ft 490 kts 147°
2026-05-04 18:42 38.99376 28.93284 37054 ft 489 kts 147°
2026-05-04 18:42 38.93562 28.97821 37046 ft 489 kts 147°
2026-05-04 18:43 38.87753 29.02346 37050 ft 488 kts 148°
2026-05-04 18:43 38.81915 29.06885 37041 ft 488 kts 148°
2026-05-04 18:44 38.76027 29.11454 37041 ft 488 kts 148°
2026-05-04 18:44 38.70225 29.15947 37044 ft 487 kts 148°
2026-05-04 18:45 38.64416 29.20437 37040 ft 487 kts 148°
2026-05-04 18:45 38.58611 29.24915 37044 ft 488 kts 148°
2026-05-04 18:46 38.52796 29.29393 37034 ft 488 kts 148°
2026-05-04 18:46 38.46984 29.33859 37040 ft 488 kts 148°
2026-05-04 18:47 38.41168 29.38321 37036 ft 488 kts 149°
2026-05-04 18:47 38.35356 29.42771 37028 ft 485 kts 149°
2026-05-04 18:48 38.29592 29.47175 36528 ft 483 kts 148°
2026-05-04 18:48 38.26699 29.49383 36039 ft 479 kts 148°
2026-05-04 18:48 38.23840 29.51562 35435 ft 479 kts 148°
2026-05-04 18:48 38.20985 29.53736 35020 ft 475 kts 148°
2026-05-04 18:49 38.18161 29.55885 34573 ft 472 kts 148°
2026-05-04 18:49 38.15246 29.57767 34244 ft 467 kts 158°
2026-05-04 18:49 38.12229 29.59183 33999 ft 459 kts 160°
2026-05-04 18:49 38.09228 29.60511 33601 ft 454 kts 160°
2026-05-04 18:50 38.06258 29.61805 33172 ft 451 kts 160°
2026-05-04 18:50 38.03304 29.63101 32744 ft 447 kts 159°
2026-05-04 18:50 38.00375 29.64400 32321 ft 445 kts 159°
2026-05-04 18:50 37.97428 29.65724 32132 ft 455 kts 159°
2026-05-04 18:51 37.94398 29.67095 31893 ft 469 kts 159°
2026-05-04 18:51 37.91284 29.68509 31623 ft 483 kts 159°
2026-05-04 18:51 37.88092 29.69958 31194 ft 489 kts 158°
2026-05-04 18:51 37.84895 29.71407 30729 ft 487 kts 158°
2026-05-04 18:52 37.81722 29.72842 30248 ft 481 kts 158°
2026-05-04 18:52 37.78586 29.74259 29718 ft 479 kts 158°
2026-05-04 18:52 37.75423 29.75689 29224 ft 487 kts 158°
2026-05-04 18:52 37.72212 29.77140 28695 ft 490 kts 159°
2026-05-04 18:53 37.69013 29.78584 28178 ft 487 kts 159°
2026-05-04 18:53 37.65841 29.80012 27662 ft 482 kts 159°
2026-05-04 18:53 37.62706 29.81422 27172 ft 477 kts 159°
2026-05-04 18:53 37.59588 29.82824 26683 ft 473 kts 159°
2026-05-04 18:54 37.56496 29.84213 26193 ft 469 kts 159°
2026-05-04 18:54 37.53392 29.85606 25710 ft 466 kts 159°
2026-05-04 18:54 37.50388 29.86954 25216 ft 463 kts 160°
2026-05-04 18:54 37.47363 29.88310 24726 ft 461 kts 160°
2026-05-04 18:55 37.44354 29.89657 24247 ft 458 kts 160°
2026-05-04 18:55 37.38390 29.92325 23223 ft 452 kts 159°
2026-05-04 18:55 37.35440 29.93642 22724 ft 447 kts 160°
2026-05-04 18:56 37.32525 29.94944 22234 ft 444 kts 160°
2026-05-04 18:56 37.29624 29.96237 21721 ft 441 kts 160°
2026-05-04 18:56 37.26744 29.97521 21246 ft 438 kts 160°
2026-05-04 18:56 37.23879 29.98798 20795 ft 435 kts 160°
2026-05-04 18:57 37.21035 30.00063 20334 ft 433 kts 160°
2026-05-04 18:57 37.18200 30.01323 19891 ft 431 kts 160°
2026-05-04 18:57 37.15522 30.02946 19426 ft 427 kts 142°
2026-05-04 18:57 37.13417 30.05521 19015 ft 422 kts 123°
2026-05-04 18:58 37.11965 30.08689 18449 ft 418 kts 107°
2026-05-04 18:58 37.11233 30.12158 17954 ft 407 kts 96°
2026-05-04 18:58 37.10728 30.15618 17481 ft 402 kts 95°
2026-05-04 18:58 37.10258 30.19046 17046 ft 397 kts 95°
2026-05-04 18:59 37.09792 30.22434 16622 ft 393 kts 96°
2026-05-04 18:59 37.09318 30.25783 16203 ft 386 kts 96°
2026-05-04 18:59 37.08846 30.29025 15784 ft 372 kts 96°
2026-05-04 18:59 37.08381 30.32161 15406 ft 361 kts 96°
2026-05-04 19:00 37.07924 30.35229 15058 ft 359 kts 97°
2026-05-04 19:00 37.07463 30.38317 14700 ft 363 kts 97°
2026-05-04 19:00 37.07009 30.41353 14327 ft 365 kts 97°
2026-05-04 19:00 37.06538 30.44482 13861 ft 367 kts 98°
2026-05-04 19:01 37.06064 30.47614 13445 ft 364 kts 98°
2026-05-04 19:01 37.05595 30.50708 13013 ft 360 kts 98°
2026-05-04 19:01 37.05130 30.53769 12596 ft 355 kts 98°
2026-05-04 19:01 37.04820 30.55810 12387 ft 351 kts 98°
2026-05-04 19:02 37.04365 30.58798 11993 ft 348 kts 98°
2026-05-04 19:02 37.03915 30.61741 11623 ft 340 kts 99°
2026-05-04 19:02 37.03082 30.64464 11265 ft 335 kts 122°
2026-05-04 19:02 37.01518 30.66533 10930 ft 325 kts 145°
2026-05-04 19:03 36.99522 30.67726 10625 ft 313 kts 165°
2026-05-04 19:03 36.97412 30.68068 10322 ft 301 kts 183°
2026-05-04 19:03 36.95355 30.67920 10036 ft 292 kts 186°
2026-05-04 19:03 36.93354 30.67727 9738 ft 285 kts 186°
2026-05-04 19:04 36.91391 30.67541 9439 ft 281 kts 186°
2026-05-04 19:04 36.89420 30.67360 9149 ft 279 kts 186°
2026-05-04 19:04 36.87479 30.67193 8882 ft 282 kts 186°
2026-05-04 19:04 36.85495 30.67026 8623 ft 289 kts 186°
2026-05-04 19:05 36.83469 30.66857 8331 ft 295 kts 185°
2026-05-04 19:05 36.81410 30.66686 8053 ft 296 kts 185°
2026-05-04 19:05 36.79372 30.66518 7729 ft 291 kts 186°
2026-05-04 19:05 36.77369 30.66353 7438 ft 286 kts 186°
2026-05-04 19:06 36.75375 30.66188 7147 ft 282 kts 186°
2026-05-04 19:06 36.73451 30.66028 6880 ft 280 kts 186°
2026-05-04 19:06 36.71514 30.65868 6614 ft 277 kts 186°
2026-05-04 19:06 36.69581 30.65708 6321 ft 273 kts 186°
2026-05-04 19:07 36.67724 30.65554 6037 ft 269 kts 186°
2026-05-04 19:07 36.65840 30.65494 5745 ft 267 kts 172°
2026-05-04 19:07 36.64157 30.66341 5487 ft 260 kts 140°
2026-05-04 19:07 36.63018 30.68009 5232 ft 249 kts 113°
2026-05-04 19:08 36.62461 30.69988 4973 ft 237 kts 91°
2026-05-04 19:08 36.62655 30.71915 4731 ft 217 kts 58°
2026-05-04 19:08 36.63491 30.73403 4548 ft 206 kts 37°
2026-05-04 19:08 36.64666 30.74354 4352 ft 200 kts 17°
2026-05-04 19:09 36.65987 30.74900 4168 ft 201 kts 12°
2026-05-04 19:09 36.67308 30.75383 3965 ft 200 kts 12°
2026-05-04 19:09 36.68620 30.75863 3774 ft 193 kts 12°
2026-05-04 19:09 36.69898 30.76336 3570 ft 185 kts 12°
2026-05-04 19:10 36.71097 30.76710 3396 ft 175 kts
2026-05-04 19:10 36.72272 30.76858 3213 ft 165 kts
2026-05-04 19:10 36.73376 30.76989 3039 ft 155 kts
2026-05-04 19:10 36.74424 30.77125 2995 ft 149 kts
2026-05-04 19:11 36.75455 30.77262 2816 ft 148 kts
2026-05-04 19:11 36.76490 30.77404 2612 ft 146 kts
2026-05-04 19:11 36.77468 30.77539 2424 ft 141 kts
2026-05-04 19:11 36.78462 30.77675 2236 ft 144 kts
2026-05-04 19:12 36.79480 30.77815 2037 ft 146 kts
2026-05-04 19:12 36.81431 30.78086 1649 ft 134 kts
2026-05-04 19:12 36.82361 30.78210 1482 ft 136 kts
2026-05-04 19:13 36.83305 30.78341 1275 ft 137 kts
2026-05-04 19:13 36.84247 30.78472 1074 ft 136 kts
2026-05-04 19:13 36.85206 30.78605 870 ft 143 kts
2026-05-04 19:13 36.86195 30.78759 654 ft 144 kts
2026-05-04 19:14 36.87192 30.78888 461 ft 146 kts
2026-05-04 19:14 36.88209 30.79022 287 ft 144 kts 360°
2026-05-04 19:14 36.89170 30.79153 190 ft 130 kts
2026-05-04 19:14 36.89971 30.79261 188 ft 99 kts
2026-05-04 19:15 36.90532 30.79340 189 ft 64 kts
2026-05-04 19:15 36.90895 30.79396 190 ft 37 kts 13°
2026-05-04 19:15 36.91003 30.79461 202 ft 12 kts 36°
2026-05-04 19:15 36.91050 30.79503 203 ft 8 kts 36°
2026-05-04 19:16 36.91095 30.79545 193 ft 8 kts 37°
2026-05-04 19:16 36.91149 30.79594 201 ft 11 kts 36°
2026-05-04 19:16 36.91212 30.79672 194 ft 12 kts 74°
2026-05-04 19:16 36.91206 30.79799 201 ft 16 kts 92°
2026-05-04 19:17 36.91258 30.79888 190 ft 15 kts
2026-05-04 19:17 36.91359 30.79902 203 ft 14 kts
2026-05-04 19:17 36.91456 30.79922 195 ft 14 kts 36°
2026-05-04 19:17 36.91494 30.79991 197 ft 6 kts 57°
2026-05-04 19:18 36.91510 30.80024 190 ft 0 kts 58°
2026-05-04 19:18 36.91512 30.80028 190 ft 0 kts 58°